Aérodrome :
LOGIN :

S'inscrire | Disclaimer

   EN    FR    IT 

 










Légende :    VFR   VFR Marginal   IFR   IFR Intensif   IFR Très Intensif
Visi : 
Plafond : 
>= 8 km
>= 3000ft
5 à 8 km
1000 à 3000 ft
1500m à 5 km
500 à 1000 ft
800 à 1500m
200 à 500 ft
< 800m
< 200 ft
Symboles :   Orages  Brouillard  Fortes neiges  Fortes précipitations  Vent > 20 kt
SIGMETs :   Divers  Orages  Givrage  Turbulence  Onde Orograph.  Cendres Volcan.







- Altitude de l'aérodrome : 124 ft
- Code IATA : AVN
- Voir les cartes d'approche


LFMV - Avignon Caumont

DERNIER METAR :
  • 162200Z AUTO 15002KT 6000 NSC 01/M01 Q1029

METARs EXPIRÉS :
  • 162130Z AUTO 00000KT 9000 NSC 02/M01 Q1029
  • 162100Z AUTO 00000KT CAVOK 03/02 Q1029
  • 162030Z AUTO 09002KT CAVOK 03/00 Q1029
  • 162000Z AUTO 09003KT CAVOK 03/01 Q1029 TEMPO 2500 BR BKN010
  • 161930Z AUTO 08002KT CAVOK 04/01 Q1029 TEMPO 2500 BR BKN010

TAF TAF LFMV
Valide du 16 à 15h jusqu'au 17 à 15h UTC


161400Z 1615/1715 VRB03KT CAVOK
TEMPO 1618/1710 2500 BR BKN010
TEMPO 1700/1710 0500 FG VV///
BECMG 1714/1715 17007KT
ATIS : +33 4 90 84 32 84
Pas de NOTAMs connus pour ce terrain.



MET'MAP, la Météo Aéronautique d'un coup d'oeil ! - Copyright ORBIFLY Décembre 2007 - Disclaimer

ORBIFLY MET'MAP TEAM :

Programmation & Développement : Alexandra Zaïnal
Conception & Développement : Baudouin d'Aumeries
Co-Programmation & Développement : Marc-Olivier Méhu
Soutien technique & logistique : Manuel Goepfert

Contact : metmap@orbifly.com




SOURCES & CREDITS :

   NOAA